Location: *
(58.7167°N, 26.1833°E)
Time: 14:54:52
(UTC+00:00)

NOSS 2-2 (C) - Pass Details

Date: 25 August 2019
Orbit: 493 x 1715 km, 63.3° (Epoch: 14 September)

Event Time Altitude Azimuth Distance (km) Brightness Sun altitude
Rises 20:23:23 0° 297° (WNW) 2,943 8.0 -16.9°
Reaches altitude 10° 20:25:25 10° 299° (WNW) 2,150 7.2 -17.0°
Maximum altitude 20:30:18 73° 25° (NNE) 884 4.4 -17.3°
Enters shadow 20:35:52 15° 109° (ESE) 2,493 6.2 -17.7°
